TimeMDT,TemperatureF,Dew PointF,Humidity,Sea Level PressureIn,VisibilityMPH,Wind Direction,Wind SpeedMPH,Gust SpeedMPH,PrecipitationIn,Events,Conditions,WindDirDegrees,DateUTC
12:53 AM,73.0,43.0,34,29.88,10.0,Calm,Calm,-,N/A,,Clear,0,2013-07-04 06:53:00
1:53 AM,69.1,46.0,44,29.88,10.0,WNW,6.9,-,N/A,,Clear,290,2013-07-04 07:53:00
2:53 AM,71.1,46.0,41,29.88,10.0,WSW,9.2,-,N/A,,Clear,250,2013-07-04 08:53:00
3:53 AM,72.0,45.0,38,29.88,10.0,WSW,9.2,-,N/A,,Clear,240,2013-07-04 09:53:00
4:53 AM,64.9,46.0,50,29.90,10.0,East,3.5,-,N/A,,Clear,80,2013-07-04 10:53:00
5:53 AM,64.9,46.0,50,29.90,10.0,Calm,Calm,-,N/A,,Clear,0,2013-07-04 11:53:00
6:53 AM,66.0,48.0,52,29.90,10.0,Calm,Calm,-,N/A,,Clear,0,2013-07-04 12:53:00
7:53 AM,71.1,48.0,44,29.90,10.0,Calm,Calm,-,N/A,,Clear,0,2013-07-04 13:53:00
8:53 AM,73.9,48.9,41,29.90,10.0,Calm,Calm,-,N/A,,Clear,0,2013-07-04 14:53:00
9:53 AM,79.0,48.9,35,29.88,10.0,NNE,5.8,-,N/A,,Clear,20,2013-07-04 15:53:00
10:53 AM,82.0,46.9,29,29.87,10.0,WNW,9.2,-,N/A,,Clear,290,2013-07-04 16:53:00
11:53 AM,84.0,48.0,28,29.86,10.0,WNW,12.7,-,N/A,,Clear,300,2013-07-04 17:53:00
12:53 PM,84.0,48.0,28,29.83,10.0,NNW,9.2,-,N/A,,Clear,330,2013-07-04 18:53:00
1:53 PM,84.0,48.9,29,29.83,10.0,NNW,12.7,-,N/A,,Clear,330,2013-07-04 19:53:00
2:53 PM,87.1,48.0,26,29.80,10.0,NNE,5.8,-,N/A,,Clear,30,2013-07-04 20:53:00
3:53 PM,89.1,45.0,22,29.76,10.0,NW,9.2,17.3,N/A,,Clear,310,2013-07-04 21:53:00
4:53 PM,88.0,45.0,22,29.75,10.0,WNW,11.5,19.6,N/A,,Clear,300,2013-07-04 22:53:00
5:53 PM,91.0,42.1,18,29.72,10.0,WNW,13.8,-,N/A,,Clear,300,2013-07-04 23:53:00
6:53 PM,89.1,43.0,20,29.70,10.0,WNW,15.0,19.6,N/A,,Clear,300,2013-07-05 00:53:00
7:53 PM,87.1,42.1,21,29.71,10.0,West,10.4,-,N/A,,Clear,280,2013-07-05 01:53:00
8:53 PM,81.0,44.1,27,29.72,10.0,WNW,5.8,-,N/A,,Clear,300,2013-07-05 02:53:00
9:53 PM,75.9,44.1,32,29.73,10.0,WSW,5.8,-,N/A,,Clear,250,2013-07-05 03:53:00
10:53 PM,72.0,45.0,38,29.74,10.0,WNW,9.2,-,N/A,,Clear,300,2013-07-05 04:53:00
11:53 PM,69.1,45.0,42,29.74,10.0,NE,3.5,-,N/A,,Clear,40,2013-07-05 05:53:00